This is the latest recevied weather packets stored in our database for station/object wb2ifs-13. If no packets are shown the sender has not sent any weather packets the latest 10 day(s).
| Time | Temp. | Humidity | Pressure | Rain* | Wind** | Luminosity | Snow |
|---|---|---|---|---|---|---|---|
| 1777774499 | 10° C | 61% | 1014.2 hPa | 0 mm | - | - | - |
| 1777773601 | 10.56° C | 59% | 1014 hPa | 0 mm | - | - | - |
| 1777772701 | 10.56° C | 60% | 1014 hPa | 0 mm | - | - | - |
| 1777771799 | 11.11° C | 59% | 1013.8 hPa | 0 mm | - | - | - |
| 1777770899 | 11.11° C | 59% | 1013.8 hPa | 0 mm | - | - | - |
| 1777770001 | 11.67° C | 58% | 1013.6 hPa | 0 mm | - | - | - |
| 1777769100 | 11.67° C | 55% | 1013.4 hPa | 0 mm | - | - | - |
| 1777768199 | 12.22° C | 54% | 1013.2 hPa | 0 mm | - | - | - |
| 1777767299 | 12.22° C | 56% | 1013 hPa | 0 mm | - | - | - |
| 1777766400 | 12.22° C | 56% | 1012.9 hPa | 0 mm | - | - | - |
| 1777765499 | 12.78° C | 56% | 1012.7 hPa | 0 mm | - | - | - |
| 1777764600 | 12.78° C | 55% | 1012.5 hPa | 0 mm | - | - | - |
| 1777763699 | 13.33° C | 52% | 1012.6 hPa | 0 mm | - | - | - |
| 1777762802 | 13.89° C | 50% | 1012.5 hPa | 0 mm | - | - | - |
| 1777761898 | 14.44° C | 46% | 1012.4 hPa | 0 mm | - | - | - |
| 1777760999 | 14.44° C | 46% | 1012.3 hPa | 0 mm | - | - | - |
| 1777760098 | 15° C | 45% | 1012.4 hPa | 0 mm | - | - | - |
| 1777759199 | 16.11° C | 42% | 1012.2 hPa | 0 mm | - | - | - |
| 1777758299 | 16.11° C | 41% | 1012.4 hPa | 0 mm | - | - | - |
| 1777757400 | 15° C | 44% | 1012.3 hPa | 0 mm | - | - | - |
| 1777756500 | 15° C | 47% | 1012.2 hPa | 0 mm | - | - | - |
| 1777755602 | 15° C | 46% | 1012.2 hPa | 0 mm | - | - | - |
| 1777754700 | 15.56° C | 44% | 1012.1 hPa | 0 mm | - | - | - |
| 1777753800 | 16.67° C | 47% | 1012.1 hPa | 0 mm | - | - | - |
| 1777752900 | 16.11° C | 43% | 1012.2 hPa | 0 mm | - | - | - |
* Rain latest hour (hover to see other rain measurements)
** Current wind speed in m/s (hover to see current wind gust speed)